Location: Angwan Shehu
(11.2514°N, 7.4613°E)
Time: 01:53:33
(UTC+00:00)

Vanguard 2 Rocket - Visible Passes

Search period start: 21 April 2021 00:00
Search period end: 01 May 2021 00:00
Orbit: 553 x 3326 km, 32.9° (Epoch: 20 April)

Date Brightness Start Highest point End Pass type
(mag) Time Alt. Az. Time Alt. Az. Time Alt. Az.
21 Apr 9.0 18:18:39 10° NW 18:36:16 60° NNE 18:44:38 20° E visible
21 Apr 8.7 20:38:53 10° WNW 20:50:27 49° WSW 20:50:27 49° WSW visible
22 Apr 8.2 19:35:36 10° WNW 19:51:36 77° SW 19:54:20 56° SSE visible
22 Apr 10.2 21:58:57 10° W 22:00:08 12° WSW 22:00:08 12° WSW visible
23 Apr 8.8 18:32:29 10° NW 18:50:36 80° NNE 18:58:14 25° ESE visible
23 Apr 9.3 20:53:57 10° WNW 21:04:02 31° WSW 21:04:02 31° WSW visible
24 Apr 8.6 19:49:58 10° WNW 20:05:09 53° SW 20:07:58 44° S visible
25 Apr 8.9 18:46:28 10° WNW 19:04:30 76° SW 19:11:53 26° SE visible
25 Apr 9.8 21:10:18 10° W 21:17:43 19° SW 21:17:43 19° SW visible
26 Apr 9.2 17:43:20 10° NW 18:03:05 84° NNE 18:15:25 10° ESE visible
26 Apr 9.2 20:05:03 10° WNW 20:18:28 35° SW 20:21:39 30° SSW visible
27 Apr 9.2 19:00:51 10° WNW 19:18:01 54° SW 19:25:36 23° SSE visible
28 Apr 9.3 17:57:21 10° WNW 18:16:55 75° SW 18:29:17 10° SE visible
28 Apr 9.7 20:21:20 10° W 20:31:47 22° SW 20:35:23 19° SSW visible
29 Apr 9.6 19:15:56 10° WNW 19:31:21 37° SW 19:39:20 18° S visible
30 Apr 9.7 18:11:46 10° WNW 18:30:26 55° SW 18:42:42 10° SSE visible
30 Apr 10.1 20:40:15 10° WSW 20:45:22 13° SW 20:49:06 11° SSW visible
